DW2099 Weather Reports


Display with metric or nautical units.
time (UTC)temp
F
wind
direction
speed
MPH
gust
MPH
rain 1hr
in
rain 24hr
in
rain mn
in
humidity
%
barometer
mb
20260504140537 70 315 2.0 5.0 0.00 0.00 0.00 74 1015.9
20260504130517 63 293 1.0 3.0 0.00 0.00 0.00 83 1016.2
20260504110516 57 0.0 0.0 0.00 0.00 0.00 89 1015.6
20260504100516 59 0.0 0.0 0.00 0.00 0.00 85 1015.9
20260504081516 62 0.0 3.0 0.00 0.00 0.00 80 1016.3
20260504080536 63 0.0 4.0 0.00 0.00 0.00 80 1016.5
20260504050516 66 293 1.0 5.0 0.00 0.00 0.00 73 1018.3
20260504045516 66 293 1.0 4.0 0.00 0.00 0.00 72 1018.3
20260504044516 66 293 2.0 6.0 0.00 0.00 0.00 72 1018.5
20260504043516 66 293 2.0 4.0 0.00 0.00 0.00 72 1018.6
20260504042516 66 315 1.0 4.0 0.00 0.00 0.00 72 1018.6
20260504041516 67 315 2.0 6.0 0.00 0.00 0.00 71 1018.5
20260504040536 67 293 2.0 4.0 0.00 0.00 0.00 71 1018.5
20260504035516 67 293 1.0 5.0 0.00 0.00 0.00 71 1018.8
20260504034516 67 293 2.0 5.0 0.00 0.00 0.00 71 1018.6
20260504033517 67 293 2.0 5.0 0.00 0.00 0.00 70 1018.5
20260504032516 68 315 2.0 6.0 0.00 0.00 0.00 69 1018.6
20260504031516 68 315 1.0 5.0 0.00 0.00 0.00 68 1018.6
20260504030536 68 315 1.0 4.0 0.00 0.00 0.00 67 1018.1
20260504025516 69 293 1.0 2.0 0.00 0.00 0.00 64 1018.0
20260504024536 69 293 1.0 4.0 0.00 0.00 0.00 62 1018.1
20260504023516 70 315 2.0 5.0 0.00 0.00 0.00 58 1018.2
20260504022516 70 315 2.0 4.0 0.00 0.00 0.00 56 1018.0
20260504021516 70 315 1.0 4.0 0.00 0.00 0.00 54 1017.7
20260504020516 70 315 1.0 2.0 0.00 0.00 0.00 54 1017.5
20260504015516 71 0.0 1.0 0.00 0.00 0.00 54 1017.3
20260504014516 71 0.0 2.0 0.00 0.00 0.00 54 1017.3
20260504013516 71 315 1.0 3.0 0.00 0.00 0.00 55 1017.2
20260504012536 72 0.0 1.0 0.00 0.00 0.00 55 1017.2
20260504011516 72 0.0 1.0 0.00 0.00 0.00 53 1017.2
20260504010516 73 0.0 3.0 0.00 0.00 0.00 51 1017.1
20260504005516 74 315 1.0 3.0 0.00 0.00 0.00 50 1017.1
20260504004516 75 315 1.0 4.0 0.00 0.00 0.00 49 1017.3
20260504003516 76 293 1.0 3.0 0.00 0.00 0.00 47 1017.2
20260504002516 76 315 1.0 4.0 0.00 0.00 0.00 46 1017.4
20260504001516 77 315 1.0 4.0 0.00 0.00 0.00 45 1017.4
20260504000516 77 315 2.0 6.0 0.00 0.00 0.00 45 1017.5
20260503235516 78 293 1.0 3.0 0.00 0.00 0.00 45 1017.6
20260503234515 78 315 1.0 5.0 0.00 0.00 0.00 42 1017.7
20260503233516 78 293 2.0 5.0 0.00 0.00 0.00 42 1017.7
20260503232516 78 315 2.0 6.0 0.00 0.00 0.00 42 1017.7
20260503231516 79 315 2.0 7.0 0.00 0.00 0.00 41 1017.5
20260503230516 79 293 2.0 5.0 0.00 0.00 0.00 41 1017.6
20260503225516 80 315 3.0 7.0 0.00 0.00 0.00 40 1017.8
20260503224516 80 293 3.0 9.0 0.00 0.00 0.00 41 1018.1
20260503223536 81 315 1.0 5.0 0.00 0.00 0.00 43 1018.1
20260503222536 81 293 3.0 8.0 0.00 0.00 0.00 39 1018.3
20260503221515 81 293 3.0 5.0 0.00 0.00 0.00 40 1018.4
20260503220516 81 293 2.0 5.0 0.00 0.00 0.00 39 1018.6
20260503215515 81 293 3.0 8.0 0.00 0.00 0.00 40 1018.7
20260503214516 82 293 2.0 7.0 0.00 0.00 0.00 37 1018.8
20260503213515 81 293 1.0 9.0 0.00 0.00 0.00 41 1019.0
20260503212518 81 293 2.0 5.0 0.00 0.00 0.00 39 1019.4
20260503211518 81 293 2.0 6.0 0.00 0.00 0.00 37 1019.5
20260503210518 81 293 2.0 5.0 0.00 0.00 0.00 39 1019.8
20260503205518 81 293 1.0 4.0 0.00 0.00 0.00 40 1019.7
20260503204538 82 315 2.0 5.0 0.00 0.00 0.00 41 1020.0
20260503203518 81 315 3.0 9.0 0.00 0.00 0.00 39 1020.1
20260503202518 82 68 2.0 6.0 0.00 0.00 0.00 39 1020.3
20260503201518 81 90 3.0 11.0 0.00 0.00 0.00 38 1020.3
20260503200518 82 293 2.0 4.0 0.00 0.00 0.00 41 1020.5
20260503195517 81 315 1.0 4.0 0.00 0.00 0.00 39 1020.5
20260503194538 81 293 2.0 6.0 0.00 0.00 0.00 41 1020.7
20260503193518 81 90 1.0 3.0 0.00 0.00 0.00 40 1020.9
20260503192518 81 293 2.0 7.0 0.00 0.00 0.00 43 1021.2
20260503191537 81 338 2.0 7.0 0.00 0.00 0.00 47 1021.2
20260503190517 81 315 3.0 6.0 0.00 0.00 0.00 39 1021.4
20260503185517 80 315 1.0 4.0 0.00 0.00 0.00 43 1021.4
20260503184517 80 293 3.0 11.0 0.00 0.00 0.00 42 1021.7
20260503183518 80 293 1.0 5.0 0.00 0.00 0.00 40 1021.9
20260503182538 79 293 2.0 9.0 0.00 0.00 0.00 43 1022.0
20260503181517 80 293 2.0 6.0 0.00 0.00 0.00 41 1022.4
20260503180517 79 293 2.0 9.0 0.00 0.00 0.00 42 1022.5
20260503175537 80 90 2.0 7.0 0.00 0.00 0.00 42 1022.5
20260503174517 79 315 2.0 5.0 0.00 0.00 0.00 42 1022.6
20260503173517 79 293 2.0 7.0 0.00 0.00 0.00 43 1022.8
20260503172517 79 293 1.0 5.0 0.00 0.00 0.00 50 1022.9
20260503171517 78 293 3.0 7.0 0.00 0.00 0.00 46 1023.1
20260503170558 78 293 1.0 4.0 0.00 0.00 0.00 45 1023.2
20260503150517 70 315 1.0 5.0 0.00 0.15 0.00 71 1023.5